{"data":{"norad_id":55060,"intl_designator":"2023-001BD","name":"ION SCV-007","alt_names":[],"object_type":"PAYLOAD","status":"ACTIVE","operator":null,"country":"IT","launch_date":"2023-01-03","launch_site_code":"AFETR","launch_vehicle":null,"mission":null,"orbit_class":"UNKNOWN","rcs_meters":null,"size_class":null,"mass_kg":null,"dimensions":null,"purposes":[],"wikipedia_slug":null,"has_3d_model":false,"image_url":null,"decayed_at":null,"tle_current":{"epoch":"2026-05-25T02:31:19.276608Z","epoch_age_seconds":66314,"freshness":"FRESH","line1":"1 55060U 23001BD  26145.10508422  .00000350  00000+0  56073-4 0  9994","line2":"2 55060  97.9017 208.5767 0013469  54.8101 305.4369 14.77528398182845","mean_motion":14.77528398,"eccentricity":0.0013469,"inclination_deg":97.9017,"raan_deg":208.5767,"arg_perigee_deg":54.8101,"mean_anomaly_deg":305.4369,"bstar":5.6073e-5,"rev_number":18284,"period_min":97.460055722056,"perigee_km":627.68778248947,"apogee_km":646.58552666016,"semimajor_km":7015.2736545748,"source":"CELESTRAK","updated_at":"2026-05-25T13:37:58.813689Z"}}}